TJS-3 AKM, 43917

Orbit data source: Space-Track

TJS-3 AKM, 43917 is space debris in GEO originally from a launch on Mon, 24 Dec 2018 UTC via a CHANG ZHENG 3C launch vehicle from the Xichang Space Center, China (XSC). Debris objects in space refer to the collection of defunct objects orbiting the Earth. Examples of debris include non-operational satellites, rocket bodies, and fragments generated from explosions, collisions, or faulty payload assembly.

Loading next visibility...
Identifier
43917, 2018-110C
Orbit
GEO
Country
Flag of CNCN / PRC
Related business
Manufacturer
CAST
Mission
Non-operational Defense Technology
Bus & Motor
Unknown
Mass
~500 kg wet, ~500 kg dry
Launch date (UTC)
2018-12-24 (7 years ago)
Launch vehicle
CHANG ZHENG 3C
Launch site
Xichang Space Center, China (XSC)
Object type
Payload
Rocket body
Debris
Shape & HBR
Box, 0.5 m
Radar Cross Section
1.500 m², Large (>1 m²)

Expand to show TLE details & history
Last TLE update: 7 hours ago

TLE from 7 hours ago
0 TJS-3 AKM
1 43917U 18110C   25309.26679119  .00000006  00000-0  00000-0 0  9991
2 43917   4.0892  81.4885 0006827 123.7756 163.6260  0.98353512 24834
Epoch: 2025-11-05T06:24Z
TLE epoch observation values (Epoch: 2025-11-05T06:24:10.758Z)
Latitude
-3.88019°
Longitude
-131.86954°
Altitude
36,361.256 km
Speed
3.053 km/s
True Right ascension
00h 35m 40s
True Declination
-3° 52' 35"
Sunlit
Object was in daylight at epoch
Visualization orbit readout
Latitude
Unknown
Longitude
Unknown
Altitude
Unknown
Speed
Unknown
Apparent Right ascension
Unknown
Apparent Declination
Unknown
Sunlit
N/A
Visualization observer readout
Local Sidereal Time
09:14:47
Azimuth
Unknown
Elevation
Unknown
Doppler factor
Unknown
Orbital elements
Apogee altitude
36,363.287 km
Perigee altitude
36,304.968 km
Semi-major axis
42,712.265 km
Eccentricity
0.00068
Inclination
4.0892°
RAAN
81.4885°
Arg. of periapsis
123.7756°
True anomaly
163.64804°
Mean anomaly
163.626°
Eccentric anomaly
163.63702°
Mean motion
0.24587 °/min
Orbital period
1,464.16 mins
BSTAR
0
Loading maneuver chart data...
Computing Atmospheric mass density...
Loading historical data...
Loading historical data...
Loading historical data...
Loading historical data...
Loading historical data...
Loading historical data...
Loading historical data...
Other satellites on launch #110 in the year 2018 (2018-12-24 UTC)

Documentation

Showing up to 5 results
|